STARLINK-1482 (45773 NORAD) Tracking and Keplerian Element Data

This shows tracking and keplerian element data for the satellite.

Feedback or suggestion? Click here.




ElementValue
Catalog45773
NameSTARLINK-1482
Epoch Orbit182
Epoch Day191.91670139
Epoch Year2020
RAAN166.1355
Inclination53.0016
Eccentricity0.0001739
Argument of Perigee80.25
Mean Anonmoly38.5459
Mean Motion15.62761662
Decay Rate0.00028789
L11 45773U 20038AV 20191.91670139 .00028789 00000-0 31901-3 0 9999
L22 45773 53.0016 166.1355 0001739 80.2500 38.5459 15.62761662 1822

Live tracking and technical data element details for STARLINK-1482 (NORAD 45773). STARLINK-1482 can be tracked NOW for your location showing map with azimuth and elevation plus other details from your city location.

Track the satellite on the map from your city or location and see movement details for azimuth, elevation, latitude, longitude, range, height, and movement on the map or in text.







IsCatalogInMostPopularTable: catalog: 45773, numindb: 4
Update: records affected: 1



GetName: 45773 STARLINK-1482

Hit Count: updated at: Fri, 10 Jul 2020 16:27:58 GMT